Regional Weather Roundup
Issued by NWS Cleveland, OH

Home | Current Version | Previous Version | Graphics & Text | Print | Product List | Glossary On
Versions: 1 2 3 4 5 6 7 8 9 10 11 12 13 14 15 16 17 18 19 20 21 22 23 24 25 26 27 28 29 30 31 32 33 34 35 36 37 38 39 40 41 42 43 44 45 46 47 48 49 50
000
ASUS41 KCLE 210500
RWRCLE
OHIO REGIONAL WEATHER ROUNDUP
NATIONAL WEATHER SERVICE WILMINGTON, OH
100 AM EDT FRI JUL 21 2017

NOTE: "FAIR" INDICATES FEW OR NO CLOUDS BELOW 12,000 FEET WITH NO
SIGNIFICANT WEATHER AND/OR OBSTRUCTIONS TO VISIBILITY.

OHZ001>008-015>018-024>027-034-035-043-044-210600-
   NORTHWEST OHIO

CITY           SKY/WX    TMP DP  RH WIND       PRES   REMARKS
DEFIANCE       FAIR     N/A N/A N/A SW3       29.96R
FINDLAY        FAIR      78  71  79 S5        29.95F
TOLEDO EXPRESS FAIR      72  72 100 CALM      29.95S
TOLEDO EXEC    FAIR      75  73  93 CALM      29.96S
LIMA           FAIR      77  75  93 S8        29.98S
$$

OHZ009>014-019>023-028>033-038-089-210600-
   NORTHEAST OHIO

CITY           SKY/WX    TMP DP  RH WIND       PRES   REMARKS
CLE-HOPKINS    FAIR      78  71  79 SW7       29.99R
CLE-LAKEFRONT  FAIR      77  69  76 SW7       29.95S
CUY CO. ARPT   NOT AVBL
LORAIN-ELYRIA  FAIR      73  67  81 SW5       29.98S
ASHTABULA      FAIR      71  69  93 CALM      29.99S
AKRON-CANTON   FAIR      77  70  79 W3        30.00S
WOOSTER        NOT AVBL
MANSFIELD      FAIR      76  71  85 SW6       30.01S
YOUNGSTOWN     MOCLDY    70  67  90 S3        29.99F
$$

OHZ042-051>053-060>062-070>072-077>081-210600-
  SOUTHWEST OHIO

CITY           SKY/WX    TMP DP  RH WIND       PRES   REMARKS
CINC-COVINGTON MOCLDY    80  74  81 SW7       30.02S
CINC-LUNKEN    FAIR      78  76  93 CALM      30.01S
HAMILTON       MOCLDY    76  75  97 CALM      30.01S
DAYTON         NOT AVBL
WRIGHT-PAT AFB MOCLDY    78  77  96 SW7       29.99F
DAYTON GENERAL CLOUDY    80  73  79 SW6       30.00F
WILMINGTON     MOCLDY    77  76  96 SW5       30.01F
$$

OHZ036-037-039>041-045>050-054>059-063>069-073>076-082>088-210600-
  CENTRAL AND SOUTHEAST OHIO

CITY           SKY/WX    TMP DP  RH WIND       PRES   REMARKS
COLUMBUS       CLOUDY    80  76  87 S3        29.99F
OSU AIRPORT    CLOUDY    79  76  90 S6        29.99F
BOLTON FIELD   CLOUDY    78  76  94 CALM      30.00F
RICKENBACK AFB NOT AVBL
NEWARK         MOCLDY    77  74  90 SW5       29.99F
MARION         MOCLDY    78  71  79 SW7       29.99S
LANCASTER      MOCLDY    78  75  90 CALM      30.00F
ZANESVILLE     MOCLDY    76  72  87 CALM      30.01S
NEW PHILLY     FAIR      73  72  96 CALM      30.01S FOG
$$




USA.gov is the U.S. government's official web portal to all federal, state and local government web resources and services.